Time,TemperatureF,DewpointF,PressureIn,WindDirection,WindDirectionDegrees,WindSpeedMPH,WindSpeedGustMPH,Humidity,HourlyPrecipIn,Conditions,Clouds,dailyrainin,SoftwareType,DateUTC
2013-06-18 00:04:00,75.4,45.8,29.74,East,89,8.0,10.0,35,0.00,,,0.00,Wunderground v.1.15,2013-06-18 06:04:00,
2013-06-18 00:09:00,75.2,46.4,29.74,ENE,69,8.0,16.0,36,0.00,,,0.00,Wunderground v.1.15,2013-06-18 06:09:00,
2013-06-18 00:15:00,74.9,47.6,29.74,ESE,102,10.0,16.0,38,0.00,,,0.00,Wunderground v.1.15,2013-06-18 06:15:00,
2013-06-18 00:20:00,74.8,48.2,29.74,NE,53,10.0,10.0,39,0.00,,,0.00,Wunderground v.1.15,2013-06-18 06:20:00,
2013-06-18 00:25:00,74.7,48.1,29.74,ESE,114,10.0,10.0,39,0.00,,,0.00,Wunderground v.1.15,2013-06-18 06:25:00,
2013-06-18 00:30:00,74.6,48.0,29.73,East,88,9.0,9.0,39,0.00,,,0.00,Wunderground v.1.15,2013-06-18 06:30:00,
2013-06-18 00:35:00,74.6,48.0,29.73,East,87,8.0,10.0,39,0.00,,,0.00,Wunderground v.1.15,2013-06-18 06:35:00,
2013-06-18 00:40:00,74.5,48.6,29.74,East,86,8.0,10.0,40,0.00,,,0.00,Wunderground v.1.15,2013-06-18 06:40:00,
2013-06-18 00:50:00,73.9,48.7,29.75,ESE,120,8.0,11.0,41,0.00,,,0.00,Wunderground v.1.15,2013-06-18 06:50:00,
2013-06-18 00:54:00,73.5,48.4,29.75,ENE,70,8.0,11.0,41,0.00,,,0.00,Wunderground v.1.15,2013-06-18 06:54:00,
2013-06-18 00:59:00,73.3,48.2,29.75,ENE,63,8.0,11.0,41,0.00,,,0.00,Wunderground v.1.15,2013-06-18 06:59:00,
2013-06-18 01:04:00,73.0,48.5,29.75,East,96,8.0,11.0,42,0.00,,,0.00,Wunderground v.1.15,2013-06-18 07:04:00,
2013-06-18 01:09:00,72.8,48.4,29.75,East,88,8.0,11.0,42,0.00,,,0.00,Wunderground v.1.15,2013-06-18 07:09:00,
2013-06-18 01:14:00,72.4,48.0,29.75,East,92,8.0,11.0,42,0.00,,,0.00,Wunderground v.1.15,2013-06-18 07:14:00,
2013-06-18 01:20:00,72.2,48.5,29.75,East,82,8.0,8.0,43,0.00,,,0.00,Wunderground v.1.15,2013-06-18 07:20:00,
2013-06-18 01:25:00,72.0,48.3,29.75,ENE,72,8.0,8.0,43,0.00,,,0.00,Wunderground v.1.15,2013-06-18 07:25:00,
2013-06-18 01:30:00,71.7,48.0,29.75,East,85,8.0,8.0,43,0.00,,,0.00,Wunderground v.1.15,2013-06-18 07:30:00,
2013-06-18 01:35:00,71.6,47.9,29.76,ENE,61,8.0,9.0,43,0.00,,,0.00,Wunderground v.1.15,2013-06-18 07:35:00,
2013-06-18 01:40:00,71.3,48.3,29.76,East,86,8.0,8.0,44,0.00,,,0.00,Wunderground v.1.15,2013-06-18 07:40:00,
2013-06-18 01:45:00,71.2,48.2,29.76,East,90,8.0,8.0,44,0.00,,,0.00,Wunderground v.1.15,2013-06-18 07:45:00,
2013-06-18 01:50:00,71.2,48.8,29.76,ESE,118,9.0,12.0,45,0.00,,,0.00,Wunderground v.1.15,2013-06-18 07:50:00,
2013-06-18 01:55:00,71.2,48.2,29.77,ENE,78,9.0,12.0,44,0.00,,,0.00,Wunderground v.1.15,2013-06-18 07:55:00,
2013-06-18 02:00:00,71.1,48.7,29.76,ESE,103,9.0,9.0,45,0.00,,,0.00,Wunderground v.1.15,2013-06-18 08:00:00,
2013-06-18 02:05:00,70.8,49.0,29.76,East,84,9.0,15.0,46,0.00,,,0.00,Wunderground v.1.15,2013-06-18 08:05:00,
2013-06-18 02:10:00,70.6,48.8,29.76,East,91,8.0,10.0,46,0.00,,,0.00,Wunderground v.1.15,2013-06-18 08:10:00,
2013-06-18 02:14:00,70.5,49.3,29.76,East,88,8.0,10.0,47,0.00,,,0.00,Wunderground v.1.15,2013-06-18 08:14:00,
2013-06-18 02:20:00,70.4,49.2,29.76,ENE,65,8.0,9.0,47,0.00,,,0.00,Wunderground v.1.15,2013-06-18 08:20:00,
2013-06-18 02:25:00,70.2,49.6,29.76,East,96,8.0,9.0,48,0.00,,,0.00,Wunderground v.1.15,2013-06-18 08:25:00,
2013-06-18 02:30:00,70.0,49.4,29.76,ENE,74,8.0,8.0,48,0.00,,,0.00,Wunderground v.1.15,2013-06-18 08:30:00,
2013-06-18 02:35:00,69.8,49.8,29.76,East,101,9.0,10.0,49,0.00,,,0.00,Wunderground v.1.15,2013-06-18 08:35:00,
2013-06-18 02:40:00,69.7,49.7,29.77,ENE,77,8.0,8.0,49,0.00,,,0.00,Wunderground v.1.15,2013-06-18 08:40:00,
2013-06-18 02:45:00,69.5,50.0,29.77,East,80,8.0,11.0,50,0.00,,,0.00,Wunderground v.1.15,2013-06-18 08:45:00,
2013-06-18 02:50:00,69.3,49.9,29.77,ENE,77,9.0,16.0,50,0.00,,,0.00,Wunderground v.1.15,2013-06-18 08:50:00,
2013-06-18 02:55:00,69.1,50.2,29.77,East,98,9.0,16.0,51,0.00,,,0.00,Wunderground v.1.15,2013-06-18 08:55:00,
2013-06-18 03:05:00,68.8,50.5,29.78,East,88,7.0,8.0,52,0.00,,,0.00,Wunderground v.1.15,2013-06-18 09:05:00,
2013-06-18 03:10:00,68.8,50.5,29.78,ENE,66,7.0,7.0,52,0.00,,,0.00,Wunderground v.1.15,2013-06-18 09:10:00,
2013-06-18 03:15:00,68.6,50.3,29.78,ESE,123,7.0,7.0,52,0.00,,,0.00,Wunderground v.1.15,2013-06-18 09:15:00,
2013-06-18 03:19:00,68.6,50.3,29.79,ESE,105,8.0,8.0,52,0.00,,,0.00,Wunderground v.1.15,2013-06-18 09:19:00,
2013-06-18 03:25:00,68.4,50.1,29.79,East,84,8.0,8.0,52,0.00,,,0.00,Wunderground v.1.15,2013-06-18 09:25:00,
2013-06-18 03:30:00,68.4,50.1,29.79,ESE,105,6.0,6.0,52,0.00,,,0.00,Wunderground v.1.15,2013-06-18 09:30:00,
2013-06-18 03:35:00,68.4,50.1,29.79,ENE,65,6.0,15.0,52,0.00,,,0.00,Wunderground v.1.15,2013-06-18 09:35:00,
2013-06-18 03:40:00,68.3,50.0,29.80,East,79,6.0,6.0,52,0.00,,,0.00,Wunderground v.1.15,2013-06-18 09:40:00,
2013-06-18 03:45:00,68.1,49.8,29.80,East,88,6.0,7.0,52,0.00,,,0.00,Wunderground v.1.15,2013-06-18 09:45:00,
2013-06-18 03:50:00,68.1,49.8,29.80,East,101,5.0,5.0,52,0.00,,,0.00,Wunderground v.1.15,2013-06-18 09:50:00,
2013-06-18 04:00:00,67.9,49.6,29.80,East,92,7.0,7.0,52,0.00,,,0.00,Wunderground v.1.15,2013-06-18 10:00:00,
2013-06-18 04:05:00,67.9,49.6,29.81,ENE,65,7.0,17.0,52,0.00,,,0.00,Wunderground v.1.15,2013-06-18 10:05:00,
2013-06-18 04:10:00,67.7,49.4,29.81,NE,53,7.0,7.0,52,0.00,,,0.00,Wunderground v.1.15,2013-06-18 10:10:00,
2013-06-18 04:15:00,67.5,49.3,29.81,ENE,77,6.0,7.0,52,0.00,,,0.00,Wunderground v.1.15,2013-06-18 10:15:00,
2013-06-18 04:20:00,67.3,49.1,29.81,East,100,6.0,6.0,52,0.00,,,0.00,Wunderground v.1.15,2013-06-18 10:20:00,
2013-06-18 04:24:00,67.3,49.1,29.81,East,93,6.0,9.0,52,0.00,,,0.00,Wunderground v.1.15,2013-06-18 10:24:00,
2013-06-18 04:29:00,67.2,49.0,29.81,ESE,104,7.0,7.0,52,0.00,,,0.00,Wunderground v.1.15,2013-06-18 10:29:00,
2013-06-18 04:34:00,67.1,48.9,29.81,ESE,107,7.0,7.0,52,0.00,,,0.00,Wunderground v.1.15,2013-06-18 10:34:00,
2013-06-18 04:39:00,67.0,48.8,29.81,ESE,108,7.0,7.0,52,0.00,,,0.00,Wunderground v.1.15,2013-06-18 10:39:00,
2013-06-18 04:44:00,66.9,48.7,29.81,ENE,64,7.0,7.0,52,0.00,,,0.00,Wunderground v.1.15,2013-06-18 10:44:00,
2013-06-18 04:50:00,66.8,49.1,29.81,East,80,7.0,7.0,53,0.00,,,0.00,Wunderground v.1.15,2013-06-18 10:50:00,
2013-06-18 04:55:00,66.7,49.0,29.81,ENE,71,6.0,9.0,53,0.00,,,0.00,Wunderground v.1.15,2013-06-18 10:55:00,
2013-06-18 05:00:00,66.5,48.8,29.81,ESE,107,6.0,6.0,53,0.00,,,0.00,Wunderground v.1.15,2013-06-18 11:00:00,
2013-06-18 05:05:00,66.3,48.7,29.81,East,96,6.0,6.0,53,0.00,,,0.00,Wunderground v.1.15,2013-06-18 11:05:00,
2013-06-18 05:10:00,66.3,48.7,29.81,East,86,8.0,8.0,53,0.00,,,0.00,Wunderground v.1.15,2013-06-18 11:10:00,
2013-06-18 05:15:00,66.2,48.6,29.81,ESE,105,8.0,8.0,53,0.00,,,0.00,Wunderground v.1.15,2013-06-18 11:15:00,
2013-06-18 05:20:00,66.1,48.5,29.82,ENE,68,7.0,8.0,53,0.00,,,0.00,Wunderground v.1.15,2013-06-18 11:20:00,
2013-06-18 05:25:00,66.0,48.4,29.82,East,86,7.0,8.0,53,0.00,,,0.00,Wunderground v.1.15,2013-06-18 11:25:00,
2013-06-18 05:29:00,65.9,48.3,29.82,ENE,64,7.0,15.0,53,0.00,,,0.00,Wunderground v.1.15,2013-06-18 11:29:00,
2013-06-18 05:34:00,65.8,48.7,29.82,East,94,7.0,15.0,54,0.00,,,0.00,Wunderground v.1.15,2013-06-18 11:34:00,
2013-06-18 05:39:00,65.8,48.7,29.83,ENE,59,8.0,12.0,54,0.00,,,0.00,Wunderground v.1.15,2013-06-18 11:39:00,
2013-06-18 05:44:00,65.8,48.7,29.83,East,89,7.0,12.0,54,0.00,,,0.00,Wunderground v.1.15,2013-06-18 11:44:00,
2013-06-18 05:49:00,65.8,48.7,29.83,East,97,7.0,14.0,54,0.00,,,0.00,Wunderground v.1.15,2013-06-18 11:49:00,
2013-06-18 05:55:00,65.8,48.7,29.83,East,96,7.0,14.0,54,0.00,,,0.00,Wunderground v.1.15,2013-06-18 11:55:00,
2013-06-18 06:00:00,65.8,48.7,29.84,East,94,6.0,6.0,54,0.00,,,0.00,Wunderground v.1.15,2013-06-18 12:00:00,
2013-06-18 06:05:00,65.7,49.1,29.84,East,90,7.0,7.0,55,0.00,,,0.00,Wunderground v.1.15,2013-06-18 12:05:00,
2013-06-18 06:10:00,65.7,49.1,29.84,ENE,75,6.0,6.0,55,0.00,,,0.00,Wunderground v.1.15,2013-06-18 12:10:00,
2013-06-18 06:15:00,65.7,49.1,29.84,ENE,75,7.0,7.0,55,0.00,,,0.00,Wunderground v.1.15,2013-06-18 12:15:00,
2013-06-18 06:20:00,65.6,49.0,29.84,ESE,105,7.0,7.0,55,0.00,,,0.00,Wunderground v.1.15,2013-06-18 12:20:00,
2013-06-18 06:25:00,65.6,49.0,29.85,ESE,112,7.0,7.0,55,0.00,,,0.00,Wunderground v.1.15,2013-06-18 12:25:00,
2013-06-18 06:29:00,65.6,49.0,29.85,ENE,78,7.0,17.0,55,0.00,,,0.00,Wunderground v.1.15,2013-06-18 12:29:00,
2013-06-18 06:34:00,65.7,49.1,29.85,ESE,111,7.0,17.0,55,0.00,,,0.00,Wunderground v.1.15,2013-06-18 12:34:00,
2013-06-18 06:39:00,65.8,49.2,29.85,ENE,70,7.0,9.0,55,0.00,,,0.00,Wunderground v.1.15,2013-06-18 12:39:00,
2013-06-18 06:44:00,66.1,49.0,29.85,East,98,6.0,9.0,54,0.00,,,0.00,Wunderground v.1.15,2013-06-18 12:44:00,
2013-06-18 06:49:00,66.4,49.2,29.85,ESE,123,6.0,6.0,54,0.00,,,0.00,Wunderground v.1.15,2013-06-18 12:49:00,
2013-06-18 06:54:00,66.8,49.1,29.85,East,79,6.0,6.0,53,0.00,,,0.00,Wunderground v.1.15,2013-06-18 12:54:00,
2013-06-18 06:59:00,66.9,49.2,29.85,East,92,6.0,6.0,53,0.00,,,0.00,Wunderground v.1.15,2013-06-18 12:59:00,
2013-06-18 07:05:00,66.9,49.2,29.85,ENE,66,6.0,6.0,53,0.00,,,0.00,Wunderground v.1.15,2013-06-18 13:05:00,
2013-06-18 07:10:00,66.7,49.0,29.85,ENE,67,6.0,14.0,53,0.00,,,0.00,Wunderground v.1.15,2013-06-18 13:10:00,
2013-06-18 07:15:00,66.7,49.0,29.86,ENE,74,6.0,14.0,53,0.00,,,0.00,Wunderground v.1.15,2013-06-18 13:15:00,
2013-06-18 07:20:00,66.7,49.0,29.86,East,93,7.0,7.0,53,0.00,,,0.00,Wunderground v.1.15,2013-06-18 13:20:00,
2013-06-18 07:25:00,66.8,49.1,29.86,East,86,6.0,7.0,53,0.00,,,0.00,Wunderground v.1.15,2013-06-18 13:25:00,
2013-06-18 07:30:00,66.9,49.2,29.86,East,91,5.0,16.0,53,0.00,,,0.00,Wunderground v.1.15,2013-06-18 13:30:00,
2013-06-18 07:40:00,67.3,49.1,29.87,ENE,65,6.0,7.0,52,0.00,,,0.00,Wunderground v.1.15,2013-06-18 13:40:00,
2013-06-18 07:44:00,67.3,49.1,29.87,East,92,5.0,7.0,52,0.00,,,0.00,Wunderground v.1.15,2013-06-18 13:44:00,
2013-06-18 07:49:00,67.3,49.1,29.87,ENE,63,6.0,6.0,52,0.00,,,0.00,Wunderground v.1.15,2013-06-18 13:49:00,
2013-06-18 07:54:00,67.5,49.3,29.87,East,80,6.0,6.0,52,0.00,,,0.00,Wunderground v.1.15,2013-06-18 13:54:00,
2013-06-18 07:59:00,67.9,49.6,29.87,East,98,6.0,6.0,52,0.00,,,0.00,Wunderground v.1.15,2013-06-18 13:59:00,
2013-06-18 08:05:00,68.0,49.2,29.87,SE,124,5.0,6.0,51,0.00,,,0.00,Wunderground v.1.15,2013-06-18 14:05:00,
2013-06-18 08:10:00,68.3,49.5,29.87,ENE,76,5.0,5.0,51,0.00,,,0.00,Wunderground v.1.15,2013-06-18 14:10:00,
2013-06-18 08:15:00,68.5,49.7,29.87,ENE,76,6.0,11.0,51,0.00,,,0.00,Wunderground v.1.15,2013-06-18 14:15:00,
2013-06-18 08:20:00,68.7,49.3,29.88,East,90,6.0,6.0,50,0.00,,,0.00,Wunderground v.1.15,2013-06-18 14:20:00,
2013-06-18 08:25:00,68.9,49.5,29.88,East,81,5.0,9.0,50,0.00,,,0.00,Wunderground v.1.15,2013-06-18 14:25:00,
2013-06-18 08:30:00,68.9,49.5,29.87,ENE,65,6.0,6.0,50,0.00,,,0.00,Wunderground v.1.15,2013-06-18 14:30:00,
2013-06-18 08:35:00,69.0,49.6,29.88,ENE,75,6.0,6.0,50,0.00,,,0.00,Wunderground v.1.15,2013-06-18 14:35:00,
2013-06-18 08:40:00,69.3,49.9,29.88,East,84,5.0,5.0,50,0.00,,,0.00,Wunderground v.1.15,2013-06-18 14:40:00,
2013-06-18 08:45:00,69.7,49.7,29.88,East,98,5.0,5.0,49,0.00,,,0.00,Wunderground v.1.15,2013-06-18 14:45:00,
2013-06-18 08:49:00,70.0,50.0,29.88,ENE,68,5.0,7.0,49,0.00,,,0.00,Wunderground v.1.15,2013-06-18 14:49:00,
2013-06-18 08:54:00,70.2,50.1,29.88,ESE,106,5.0,7.0,49,0.00,,,0.00,Wunderground v.1.15,2013-06-18 14:54:00,
2013-06-18 08:59:00,70.3,50.2,29.89,East,99,5.0,5.0,49,0.00,,,0.00,Wunderground v.1.15,2013-06-18 14:59:00,
2013-06-18 09:04:00,70.7,50.6,29.89,East,86,4.0,6.0,49,0.00,,,0.00,Wunderground v.1.15,2013-06-18 15:04:00,
2013-06-18 09:10:00,70.8,50.1,29.89,East,100,5.0,5.0,48,0.00,,,0.00,Wunderground v.1.15,2013-06-18 15:10:00,
2013-06-18 09:15:00,70.6,50.0,29.88,East,94,6.0,6.0,48,0.00,,,0.00,Wunderground v.1.15,2013-06-18 15:15:00,
2013-06-18 09:20:00,71.0,50.3,29.88,ENE,78,5.0,5.0,48,0.00,,,0.00,Wunderground v.1.15,2013-06-18 15:20:00,
2013-06-18 09:25:00,71.2,49.9,29.88,East,91,5.0,5.0,47,0.00,,,0.00,Wunderground v.1.15,2013-06-18 15:25:00,
2013-06-18 09:30:00,71.2,49.9,29.88,East,80,5.0,5.0,47,0.00,,,0.00,Wunderground v.1.15,2013-06-18 15:30:00,
2013-06-18 09:35:00,71.4,50.1,29.88,East,101,5.0,6.0,47,0.00,,,0.00,Wunderground v.1.15,2013-06-18 15:35:00,
2013-06-18 09:40:00,71.7,50.4,29.88,ENE,68,4.0,4.0,47,0.00,,,0.00,Wunderground v.1.15,2013-06-18 15:40:00,
2013-06-18 09:45:00,72.0,50.1,29.88,East,84,5.0,5.0,46,0.00,,,0.00,Wunderground v.1.15,2013-06-18 15:45:00,
2013-06-18 09:50:00,72.2,50.3,29.88,East,86,5.0,5.0,46,0.00,,,0.00,Wunderground v.1.15,2013-06-18 15:50:00,
2013-06-18 09:55:00,72.4,50.4,29.88,ESE,119,5.0,5.0,46,0.00,,,0.00,Wunderground v.1.15,2013-06-18 15:55:00,
2013-06-18 09:59:00,72.8,50.8,29.88,East,91,5.0,6.0,46,0.00,,,0.00,Wunderground v.1.15,2013-06-18 15:59:00,
2013-06-18 10:04:00,73.1,50.5,29.87,East,101,4.0,6.0,45,0.00,,,0.00,Wunderground v.1.15,2013-06-18 16:04:00,
2013-06-18 10:10:00,73.6,50.3,29.88,ENE,57,4.0,5.0,44,0.00,,,0.00,Wunderground v.1.15,2013-06-18 16:10:00,
2013-06-18 10:15:00,73.7,50.4,29.88,ENE,65,4.0,6.0,44,0.00,,,0.00,Wunderground v.1.15,2013-06-18 16:15:00,
2013-06-18 10:20:00,74.0,50.1,29.87,ENE,69,4.0,4.0,43,0.00,,,0.00,Wunderground v.1.15,2013-06-18 16:20:00,
2013-06-18 10:25:00,74.5,50.5,29.87,ENE,77,4.0,4.0,43,0.00,,,0.00,Wunderground v.1.15,2013-06-18 16:25:00,
2013-06-18 10:30:00,75.1,50.4,29.87,ESE,103,3.0,3.0,42,0.00,,,0.00,Wunderground v.1.15,2013-06-18 16:30:00,
2013-06-18 10:35:00,75.5,50.1,29.87,East,95,4.0,4.0,41,0.00,,,0.00,Wunderground v.1.15,2013-06-18 16:35:00,
2013-06-18 10:45:00,75.8,50.4,29.87,ENE,67,3.0,4.0,41,0.00,,,0.00,Wunderground v.1.15,2013-06-18 16:45:00,
2013-06-18 10:50:00,76.5,50.4,29.87,East,84,3.0,3.0,40,0.00,,,0.00,Wunderground v.1.15,2013-06-18 16:50:00,
2013-06-18 10:55:00,77.0,50.1,29.86,East,101,3.0,3.0,39,0.00,,,0.00,Wunderground v.1.15,2013-06-18 16:55:00,
2013-06-18 11:00:00,77.6,50.0,29.87,East,84,3.0,4.0,38,0.00,,,0.00,Wunderground v.1.15,2013-06-18 17:00:00,
2013-06-18 11:05:00,77.8,50.2,29.86,East,91,3.0,4.0,38,0.00,,,0.00,Wunderground v.1.15,2013-06-18 17:05:00,
2013-06-18 11:10:00,77.9,50.2,29.86,East,86,2.0,2.0,38,0.00,,,0.00,Wunderground v.1.15,2013-06-18 17:10:00,
2013-06-18 11:14:00,78.3,49.9,29.86,ENE,77,2.0,3.0,37,0.00,,,0.00,Wunderground v.1.15,2013-06-18 17:14:00,
2013-06-18 11:19:00,78.5,50.1,29.86,East,84,2.0,4.0,37,0.00,,,0.00,Wunderground v.1.15,2013-06-18 17:19:00,
2013-06-18 11:25:00,78.7,50.2,29.85,East,100,2.0,4.0,37,0.00,,,0.00,Wunderground v.1.15,2013-06-18 17:25:00,
2013-06-18 11:30:00,78.7,50.2,29.85,East,82,2.0,6.0,37,0.00,,,0.00,Wunderground v.1.15,2013-06-18 17:30:00,
2013-06-18 11:35:00,78.7,49.5,29.85,ENE,69,2.0,6.0,36,0.00,,,0.00,Wunderground v.1.15,2013-06-18 17:35:00,
2013-06-18 11:40:00,79.3,49.3,29.85,East,88,3.0,3.0,35,0.00,,,0.00,Wunderground v.1.15,2013-06-18 17:40:00,
2013-06-18 11:45:00,79.7,50.4,29.84,East,84,2.0,3.0,36,0.00,,,0.00,Wunderground v.1.15,2013-06-18 17:45:00,
2013-06-18 11:50:00,80.4,50.2,29.84,East,86,1.0,1.0,35,0.00,,,0.00,Wunderground v.1.15,2013-06-18 17:50:00,
2013-06-18 11:55:00,80.9,49.9,29.84,East,81,1.0,1.0,34,0.00,,,0.00,Wunderground v.1.15,2013-06-18 17:55:00,
2013-06-18 12:00:00,81.0,49.2,29.84,ENE,75,1.0,1.0,33,0.00,,,0.00,Wunderground v.1.15,2013-06-18 18:00:00,
2013-06-18 12:05:00,81.2,50.2,29.83,ENE,73,1.0,1.0,34,0.00,,,0.00,Wunderground v.1.15,2013-06-18 18:05:00,
2013-06-18 12:10:00,81.6,49.7,29.83,ENE,74,1.0,1.0,33,0.00,,,0.00,Wunderground v.1.15,2013-06-18 18:10:00,
2013-06-18 12:19:00,82.1,49.3,29.82,ENE,74,0.0,0.0,32,0.00,,,0.00,Wunderground v.1.15,2013-06-18 18:19:00,
2013-06-18 12:24:00,82.7,49.0,29.82,ENE,72,0.0,2.0,31,0.00,,,0.00,Wunderground v.1.15,2013-06-18 18:24:00,
2013-06-18 12:29:00,83.0,49.2,29.82,NE,53,1.0,1.0,31,0.00,,,0.00,Wunderground v.1.15,2013-06-18 18:29:00,
2013-06-18 12:34:00,83.2,48.5,29.82,ENE,73,1.0,1.0,30,0.00,,,0.00,Wunderground v.1.15,2013-06-18 18:34:00,
2013-06-18 12:40:00,83.3,48.6,29.82,ENE,78,1.0,1.0,30,0.00,,,0.00,Wunderground v.1.15,2013-06-18 18:40:00,
2013-06-18 12:45:00,83.6,48.0,29.81,ENE,78,1.0,1.0,29,0.00,,,0.00,Wunderground v.1.15,2013-06-18 18:45:00,
2013-06-18 12:50:00,83.9,48.2,29.81,ENE,76,0.0,0.0,29,0.00,,,0.00,Wunderground v.1.15,2013-06-18 18:50:00,
2013-06-18 12:55:00,83.6,48.9,29.81,SSE,163,1.0,2.0,30,0.00,,,0.00,Wunderground v.1.15,2013-06-18 18:55:00,
2013-06-18 13:00:00,83.6,48.0,29.81,SSE,168,1.0,1.0,29,0.00,,,0.00,Wunderground v.1.15,2013-06-18 19:00:00,
2013-06-18 13:05:00,83.8,48.1,29.81,SSE,168,1.0,1.0,29,0.00,,,0.00,Wunderground v.1.15,2013-06-18 19:05:00,
2013-06-18 13:10:00,84.0,48.3,29.80,East,96,0.0,1.0,29,0.00,,,0.00,Wunderground v.1.15,2013-06-18 19:10:00,
2013-06-18 13:15:00,84.3,48.6,29.80,East,96,1.0,1.0,29,0.00,,,0.00,Wunderground v.1.15,2013-06-18 19:15:00,
2013-06-18 13:19:00,84.7,48.0,29.80,East,101,1.0,1.0,28,0.00,,,0.00,Wunderground v.1.15,2013-06-18 19:19:00,
2013-06-18 13:24:00,85.2,48.4,29.80,SE,139,1.0,1.0,28,0.00,,,0.00,Wunderground v.1.15,2013-06-18 19:24:00,
2013-06-18 13:29:00,85.6,48.8,29.80,SE,141,0.0,5.0,28,0.00,,,0.00,Wunderground v.1.15,2013-06-18 19:29:00,
2013-06-18 13:34:00,85.9,47.0,29.80,SE,142,0.0,5.0,26,0.00,,,0.00,Wunderground v.1.15,2013-06-18 19:34:00,
2013-06-18 13:39:00,85.7,45.8,29.79,SE,131,0.0,2.0,25,0.00,,,0.00,Wunderground v.1.15,2013-06-18 19:39:00,
2013-06-18 13:44:00,85.5,45.7,29.79,SE,130,0.0,2.0,25,0.00,,,0.00,Wunderground v.1.15,2013-06-18 19:44:00,
2013-06-18 13:50:00,85.5,46.7,29.79,ESE,118,0.0,2.0,26,0.00,,,0.00,Wunderground v.1.15,2013-06-18 19:50:00,
2013-06-18 13:55:00,85.8,45.9,29.78,ESE,107,1.0,2.0,25,0.00,,,0.00,Wunderground v.1.15,2013-06-18 19:55:00,
2013-06-18 14:00:00,85.8,44.8,29.78,ESE,107,1.0,1.0,24,0.00,,,0.00,Wunderground v.1.15,2013-06-18 20:00:00,
2013-06-18 14:05:00,85.9,46.0,29.77,ESE,107,0.0,1.0,25,0.00,,,0.00,Wunderground v.1.15,2013-06-18 20:05:00,
2013-06-18 14:10:00,86.0,45.0,29.77,ESE,107,0.0,0.0,24,0.00,,,0.00,Wunderground v.1.15,2013-06-18 20:10:00,
2013-06-18 14:15:00,86.5,43.1,29.77,ESE,107,0.0,0.0,22,0.00,,,0.00,Wunderground v.1.15,2013-06-18 20:15:00,
2013-06-18 14:20:00,87.1,41.2,29.77,ESE,106,0.0,1.0,20,0.00,,,0.00,Wunderground v.1.15,2013-06-18 20:20:00,
2013-06-18 14:25:00,87.2,42.5,29.77,ESE,106,1.0,1.0,21,0.00,,,0.00,Wunderground v.1.15,2013-06-18 20:25:00,
2013-06-18 14:29:00,87.7,41.6,29.77,ESE,108,1.0,1.0,20,0.00,,,0.00,Wunderground v.1.15,2013-06-18 20:29:00,
2013-06-18 14:34:00,88.1,42.0,29.77,ESE,108,1.0,1.0,20,0.00,,,0.00,Wunderground v.1.15,2013-06-18 20:34:00,
2013-06-18 14:39:00,88.5,41.0,29.76,ESE,108,0.0,0.0,19,0.00,,,0.00,Wunderground v.1.15,2013-06-18 20:39:00,
2013-06-18 14:44:00,88.6,41.1,29.76,East,101,1.0,1.0,19,0.00,,,0.00,Wunderground v.1.15,2013-06-18 20:44:00,
2013-06-18 14:49:00,88.8,39.8,29.76,East,101,1.0,1.0,18,0.00,,,0.00,Wunderground v.1.15,2013-06-18 20:49:00,
2013-06-18 14:55:00,89.0,40.0,29.76,East,101,0.0,1.0,18,0.00,,,0.00,Wunderground v.1.15,2013-06-18 20:55:00,
2013-06-18 15:00:00,89.3,40.2,29.75,East,101,0.0,1.0,18,0.00,,,0.00,Wunderground v.1.15,2013-06-18 21:00:00,
2013-06-18 15:05:00,89.9,39.2,29.75,ESE,107,0.0,1.0,17,0.00,,,0.00,Wunderground v.1.15,2013-06-18 21:05:00,
2013-06-18 15:10:00,89.7,39.1,29.75,East,96,1.0,2.0,17,0.00,,,0.00,Wunderground v.1.15,2013-06-18 21:10:00,
2013-06-18 15:15:00,89.5,40.4,29.75,East,91,1.0,2.0,18,0.00,,,0.00,Wunderground v.1.15,2013-06-18 21:15:00,
2013-06-18 15:20:00,89.5,40.4,29.74,East,91,1.0,1.0,18,0.00,,,0.00,Wunderground v.1.15,2013-06-18 21:20:00,
2013-06-18 15:25:00,89.9,40.7,29.74,East,96,0.0,1.0,18,0.00,,,0.00,Wunderground v.1.15,2013-06-18 21:25:00,
2013-06-18 15:30:00,90.1,40.9,29.74,East,99,0.0,3.0,18,0.00,,,0.00,Wunderground v.1.15,2013-06-18 21:30:00,
2013-06-18 15:35:00,90.2,41.0,29.73,East,92,0.0,3.0,18,0.00,,,0.00,Wunderground v.1.15,2013-06-18 21:35:00,
2013-06-18 15:39:00,90.3,41.0,29.73,East,92,1.0,1.0,18,0.00,,,0.00,Wunderground v.1.15,2013-06-18 21:39:00,
2013-06-18 15:44:00,90.5,39.7,29.73,East,88,1.0,2.0,17,0.00,,,0.00,Wunderground v.1.15,2013-06-18 21:44:00,
2013-06-18 15:49:00,90.4,39.6,29.72,East,88,1.0,1.0,17,0.00,,,0.00,Wunderground v.1.15,2013-06-18 21:49:00,
2013-06-18 15:55:00,90.3,41.0,29.72,East,87,0.0,1.0,18,0.00,,,0.00,Wunderground v.1.15,2013-06-18 21:55:00,
2013-06-18 16:00:00,90.8,40.0,29.72,East,87,0.0,0.0,17,0.00,,,0.00,Wunderground v.1.15,2013-06-18 22:00:00,
2013-06-18 16:05:00,91.2,40.3,29.72,East,80,0.0,3.0,17,0.00,,,0.00,Wunderground v.1.15,2013-06-18 22:05:00,
2013-06-18 16:10:00,91.2,40.3,29.72,North,355,1.0,6.0,17,0.00,,,0.00,Wunderground v.1.15,2013-06-18 22:10:00,
2013-06-18 16:15:00,91.1,40.2,29.71,North,355,1.0,6.0,17,0.00,,,0.00,Wunderground v.1.15,2013-06-18 22:15:00,
2013-06-18 16:20:00,91.4,40.5,29.71,North,355,1.0,1.0,17,0.00,,,0.00,Wunderground v.1.15,2013-06-18 22:20:00,
2013-06-18 16:30:00,92.0,39.4,29.71,North,355,1.0,1.0,16,0.00,,,0.00,Wunderground v.1.15,2013-06-18 22:30:00,
2013-06-18 16:35:00,92.0,39.4,29.70,North,355,1.0,1.0,16,0.00,,,0.00,Wunderground v.1.15,2013-06-18 22:35:00,
2013-06-18 16:40:00,92.1,39.5,29.70,NNW,332,1.0,1.0,16,0.00,,,0.00,Wunderground v.1.15,2013-06-18 22:40:00,
2013-06-18 16:45:00,91.9,39.3,29.70,NNW,332,1.0,1.0,16,0.00,,,0.00,Wunderground v.1.15,2013-06-18 22:45:00,
2013-06-18 16:50:00,91.9,37.6,29.69,NNW,341,0.0,0.0,15,0.00,,,0.00,Wunderground v.1.15,2013-06-18 22:50:00,
2013-06-18 16:55:00,92.2,37.9,29.69,NNW,341,1.0,1.0,15,0.00,,,0.00,Wunderground v.1.15,2013-06-18 22:55:00,
2013-06-18 16:59:00,92.5,38.1,29.68,NNW,342,0.0,0.0,15,0.00,,,0.00,Wunderground v.1.15,2013-06-18 22:59:00,
2013-06-18 17:04:00,93.0,38.5,29.68,NNW,342,0.0,0.0,15,0.00,,,0.00,Wunderground v.1.15,2013-06-18 23:04:00,
2013-06-18 17:10:00,93.1,40.3,29.68,North,355,0.0,0.0,16,0.00,,,0.00,Wunderground v.1.15,2013-06-18 23:10:00,
2013-06-18 17:15:00,93.3,38.8,29.67,North,355,0.0,0.0,15,0.00,,,0.00,Wunderground v.1.15,2013-06-18 23:15:00,
2013-06-18 17:25:00,93.5,40.6,29.67,NNE,32,0.0,0.0,16,0.00,,,0.00,Wunderground v.1.15,2013-06-18 23:25:00,
2013-06-18 17:35:00,94.0,39.3,29.66,NNE,32,0.0,4.0,15,0.00,,,0.00,Wunderground v.1.15,2013-06-18 23:35:00,
2013-06-18 17:40:00,94.1,39.4,29.66,NNE,32,0.0,0.0,15,0.00,,,0.00,Wunderground v.1.15,2013-06-18 23:40:00,
2013-06-18 17:45:00,93.6,39.0,29.66,NNE,32,0.0,0.0,15,0.00,,,0.00,Wunderground v.1.15,2013-06-18 23:45:00,
2013-06-18 17:49:00,93.1,40.3,29.66,NNE,32,0.0,0.0,16,0.00,,,0.00,Wunderground v.1.15,2013-06-18 23:49:00,
2013-06-18 17:54:00,92.9,40.1,29.66,NNE,32,0.0,1.0,16,0.00,,,0.00,Wunderground v.1.15,2013-06-18 23:54:00,
2013-06-18 18:00:00,92.7,39.9,29.66,NNE,30,0.0,0.0,16,0.00,,,0.00,Wunderground v.1.15,2013-06-19 00:00:00,
2013-06-18 18:05:00,92.4,39.7,29.66,NNE,30,1.0,1.0,16,0.00,,,0.00,Wunderground v.1.15,2013-06-19 00:05:00,
2013-06-18 18:10:00,92.4,39.7,29.65,NNE,30,0.0,0.0,16,0.00,,,0.00,Wunderground v.1.15,2013-06-19 00:10:00,
2013-06-18 18:15:00,92.6,39.9,29.65,NNE,30,0.0,0.0,16,0.00,,,0.00,Wunderground v.1.15,2013-06-19 00:15:00,
2013-06-18 18:20:00,92.8,38.4,29.65,NNE,30,0.0,0.0,15,0.00,,,0.00,Wunderground v.1.15,2013-06-19 00:20:00,
2013-06-18 18:25:00,92.9,40.1,29.65,NNE,30,0.0,1.0,16,0.00,,,0.00,Wunderground v.1.15,2013-06-19 00:25:00,
2013-06-18 18:29:00,93.0,40.2,29.65,NNE,30,0.0,3.0,16,0.00,,,0.00,Wunderground v.1.15,2013-06-19 00:29:00,
2013-06-18 18:34:00,92.8,40.0,29.65,NNE,30,0.0,3.0,16,0.00,,,0.00,Wunderground v.1.15,2013-06-19 00:34:00,
2013-06-18 18:39:00,92.3,39.6,29.65,NNE,30,0.0,1.0,16,0.00,,,0.00,Wunderground v.1.15,2013-06-19 00:39:00,
2013-06-18 18:44:00,91.8,39.2,29.65,NNE,30,0.0,1.0,16,0.00,,,0.00,Wunderground v.1.15,2013-06-19 00:44:00,
2013-06-18 18:49:00,91.4,38.9,29.64,NNE,30,0.0,0.0,16,0.00,,,0.00,Wunderground v.1.15,2013-06-19 00:49:00,
2013-06-18 18:55:00,91.2,40.3,29.64,NNE,30,0.0,0.0,17,0.00,,,0.00,Wunderground v.1.15,2013-06-19 00:55:00,
2013-06-18 19:00:00,91.0,40.1,29.65,NNE,30,0.0,1.0,17,0.00,,,0.00,Wunderground v.1.15,2013-06-19 01:00:00,
2013-06-18 19:10:00,90.4,38.1,29.65,NNE,30,0.0,1.0,16,0.00,,,0.00,Wunderground v.1.15,2013-06-19 01:10:00,
2013-06-18 19:15:00,90.3,41.0,29.65,NNE,30,0.0,1.0,18,0.00,,,0.00,Wunderground v.1.15,2013-06-19 01:15:00,
2013-06-18 19:19:00,90.0,39.3,29.65,NNE,30,0.0,1.0,17,0.00,,,0.00,Wunderground v.1.15,2013-06-19 01:19:00,
2013-06-18 19:24:00,89.7,39.1,29.65,NNE,30,0.0,1.0,17,0.00,,,0.00,Wunderground v.1.15,2013-06-19 01:24:00,
2013-06-18 19:29:00,89.3,38.8,29.65,NNE,30,0.0,2.0,17,0.00,,,0.00,Wunderground v.1.15,2013-06-19 01:29:00,
2013-06-18 19:35:00,89.1,38.6,29.65,NNE,30,0.0,2.0,17,0.00,,,0.00,Wunderground v.1.15,2013-06-19 01:35:00,
2013-06-18 19:45:00,88.6,38.2,29.65,NNE,30,0.0,1.0,17,0.00,,,0.00,Wunderground v.1.15,2013-06-19 01:45:00,
2013-06-18 19:50:00,88.4,38.0,29.65,NNE,30,0.0,0.0,17,0.00,,,0.00,Wunderground v.1.15,2013-06-19 01:50:00,
2013-06-18 19:55:00,88.3,38.0,29.65,NNE,30,0.0,0.0,17,0.00,,,0.00,Wunderground v.1.15,2013-06-19 01:55:00,
2013-06-18 20:00:00,88.1,37.8,29.65,NNE,30,0.0,0.0,17,0.00,,,0.00,Wunderground v.1.15,2013-06-19 02:00:00,
2013-06-18 20:05:00,88.0,39.2,29.64,NNE,30,0.0,0.0,18,0.00,,,0.00,Wunderground v.1.15,2013-06-19 02:05:00,
2013-06-18 20:09:00,87.8,37.6,29.64,NNE,30,0.0,0.0,17,0.00,,,0.00,Wunderground v.1.15,2013-06-19 02:09:00,
2013-06-18 20:14:00,87.5,38.8,29.65,NNE,30,0.0,0.0,18,0.00,,,0.00,Wunderground v.1.15,2013-06-19 02:14:00,
2013-06-18 20:19:00,87.2,38.5,29.65,NNE,30,0.0,0.0,18,0.00,,,0.00,Wunderground v.1.15,2013-06-19 02:19:00,
2013-06-18 20:25:00,86.9,38.3,29.65,NNE,30,0.0,0.0,18,0.00,,,0.00,Wunderground v.1.15,2013-06-19 02:25:00,
2013-06-18 20:30:00,86.7,38.1,29.65,NNE,30,0.0,1.0,18,0.00,,,0.00,Wunderground v.1.15,2013-06-19 02:30:00,
2013-06-18 20:40:00,86.2,39.1,29.64,NNE,30,0.0,0.0,19,0.00,,,0.00,Wunderground v.1.15,2013-06-19 02:40:00,
2013-06-18 20:45:00,85.9,38.8,29.64,NNE,30,0.0,0.0,19,0.00,,,0.00,Wunderground v.1.15,2013-06-19 02:45:00,
2013-06-18 20:50:00,85.5,39.8,29.64,NNE,30,0.0,0.0,20,0.00,,,0.00,Wunderground v.1.15,2013-06-19 02:50:00,
2013-06-18 20:55:00,85.2,39.6,29.64,NNE,30,0.0,0.0,20,0.00,,,0.00,Wunderground v.1.15,2013-06-19 02:55:00,
2013-06-18 21:00:00,85.2,39.6,29.65,NNE,30,0.0,1.0,20,0.00,,,0.00,Wunderground v.1.15,2013-06-19 03:00:00,
2013-06-18 21:04:00,85.2,40.8,29.65,NNE,30,0.0,1.0,21,0.00,,,0.00,Wunderground v.1.15,2013-06-19 03:04:00,
2013-06-18 21:15:00,85.1,42.0,29.65,NNE,30,0.0,1.0,22,0.00,,,0.00,Wunderground v.1.15,2013-06-19 03:15:00,
2013-06-18 21:20:00,85.1,43.1,29.65,NNE,30,0.0,0.0,23,0.00,,,0.00,Wunderground v.1.15,2013-06-19 03:20:00,
2013-06-18 21:25:00,85.0,41.9,29.65,NNE,30,0.0,3.0,22,0.00,,,0.00,Wunderground v.1.15,2013-06-19 03:25:00,
2013-06-18 21:35:00,84.8,42.9,29.66,NNE,30,0.0,1.0,23,0.00,,,0.00,Wunderground v.1.15,2013-06-19 03:35:00,
2013-06-18 21:40:00,84.7,42.8,29.65,NNE,30,0.0,0.0,23,0.00,,,0.00,Wunderground v.1.15,2013-06-19 03:40:00,
2013-06-18 21:49:00,84.5,42.6,29.66,NNE,30,0.0,0.0,23,0.00,,,0.00,Wunderground v.1.15,2013-06-19 03:49:00,
2013-06-18 21:54:00,84.2,42.4,29.66,NNE,30,0.0,1.0,23,0.00,,,0.00,Wunderground v.1.15,2013-06-19 03:54:00,
2013-06-18 21:59:00,84.0,42.2,29.65,NNE,30,0.0,0.0,23,0.00,,,0.00,Wunderground v.1.15,2013-06-19 03:59:00,
2013-06-18 22:04:00,83.9,42.1,29.65,NNE,30,0.0,1.0,23,0.00,,,0.00,Wunderground v.1.15,2013-06-19 04:04:00,
2013-06-18 22:10:00,83.8,42.0,29.66,NNE,30,0.0,0.0,23,0.00,,,0.00,Wunderground v.1.15,2013-06-19 04:10:00,
2013-06-18 22:15:00,83.8,42.0,29.66,NNE,30,0.0,0.0,23,0.00,,,0.00,Wunderground v.1.15,2013-06-19 04:15:00,
2013-06-18 22:20:00,83.7,42.0,29.65,NNE,30,0.0,0.0,23,0.00,,,0.00,Wunderground v.1.15,2013-06-19 04:20:00,
2013-06-18 22:25:00,83.6,40.7,29.65,NNE,30,0.0,0.0,22,0.00,,,0.00,Wunderground v.1.15,2013-06-19 04:25:00,
2013-06-18 22:30:00,83.4,40.6,29.65,NNE,30,0.0,3.0,22,0.00,,,0.00,Wunderground v.1.15,2013-06-19 04:30:00,
2013-06-18 22:35:00,83.2,40.4,29.65,NNE,30,0.0,3.0,22,0.00,,,0.00,Wunderground v.1.15,2013-06-19 04:35:00,
2013-06-18 22:39:00,83.1,40.3,29.65,NNE,30,0.0,0.0,22,0.00,,,0.00,Wunderground v.1.15,2013-06-19 04:39:00,
2013-06-18 22:44:00,83.0,40.2,29.65,NNE,30,0.0,0.0,22,0.00,,,0.00,Wunderground v.1.15,2013-06-19 04:44:00,
2013-06-18 22:49:00,82.9,40.1,29.65,NNE,30,0.0,0.0,22,0.00,,,0.00,Wunderground v.1.15,2013-06-19 04:49:00,
2013-06-18 22:55:00,82.8,40.1,29.65,NNE,31,0.0,1.0,22,0.00,,,0.00,Wunderground v.1.15,2013-06-19 04:55:00,
2013-06-18 23:00:00,82.7,40.0,29.65,NNE,31,0.0,0.0,22,0.00,,,0.00,Wunderground v.1.15,2013-06-19 05:00:00,
2013-06-18 23:05:00,82.5,39.8,29.65,NNE,31,0.0,1.0,22,0.00,,,0.00,Wunderground v.1.15,2013-06-19 05:05:00,
2013-06-18 23:10:00,82.6,39.9,29.65,NE,35,0.0,0.0,22,0.00,,,0.00,Wunderground v.1.15,2013-06-19 05:10:00,
2013-06-18 23:15:00,82.6,39.9,29.65,NE,35,0.0,0.0,22,0.00,,,0.00,Wunderground v.1.15,2013-06-19 05:15:00,
2013-06-18 23:19:00,82.5,39.8,29.66,NE,35,0.0,0.0,22,0.00,,,0.00,Wunderground v.1.15,2013-06-19 05:19:00,
2013-06-18 23:24:00,82.3,39.6,29.65,NE,35,0.0,0.0,22,0.00,,,0.00,Wunderground v.1.15,2013-06-19 05:24:00,
2013-06-18 23:29:00,82.0,40.5,29.65,NE,35,0.0,3.0,23,0.00,,,0.00,Wunderground v.1.15,2013-06-19 05:29:00,
2013-06-18 23:34:00,81.6,41.3,29.65,NE,35,0.0,3.0,24,0.00,,,0.00,Wunderground v.1.15,2013-06-19 05:34:00,
2013-06-18 23:40:00,81.2,41.0,29.65,NE,35,0.0,0.0,24,0.00,,,0.00,Wunderground v.1.15,2013-06-19 05:40:00,
2013-06-18 23:45:00,80.8,41.7,29.65,NE,35,0.0,0.0,25,0.00,,,0.00,Wunderground v.1.15,2013-06-19 05:45:00,
2013-06-18 23:50:00,80.2,41.2,29.65,NE,35,0.0,0.0,25,0.00,,,0.00,Wunderground v.1.15,2013-06-19 05:50:00,